CARTOSAT-3

Last updated on Mon Sep 07 2026 00:02:46 GMT+0000 (Coordinated Universal Time)

1 44804U 19081A 26249.63035219 .00002519 00000+0 12237-3 0 9995 2 44804 97.4229 310.1507 0010701 223.8796 136.1589 15.19313521375838
UTC large
Height (km)
Speed (km/s)
/
Latitude / Longitude
Inclination (degrees)
Orbital Period (minutes)
Azimuth
Elevation
Range (km)
Doppler Factor

Next 0 passes for location: London (51.5072 / 0.1276)

No passes found over London.
CARTOSAT-3